Location: Newark
(31.5350°N, 35.0986°E)
Time: 18:08:01
(UTC+00:00)

Explorer 7 - Pass Details

Date: 20 October 2019
Orbit: 485 x 680 km, 50.3° (Epoch: 12 November)

Event Time Altitude Azimuth Distance (km) Brightness Sun altitude
Rises 15:07:45 0° 319° (NW) 2,635 10.7 -1.9°
Reaches altitude 10° 15:09:59 10° 327° (NNW) 1,773 9.7 -2.4°
Maximum altitude 15:13:50 42° 39° (NE) 792 7.3 -3.2°
Drops below altitude 10° 15:17:53 10° 111° (ESE) 1,878 9.0 -4.0°
Sets 15:20:19 0° 118° (ESE) 2,813 9.9 -4.5°
